Terug naar catalogus

TRANSIT 10 DEB

ActiefPO
NORAD 24705·DEBRIS·🇺🇸 United States

Gelanceerd Dec 22, 1965 vanaf Vandenberg Space Force Base

Loading…

Volgende Passages (komende 24 uur)

TLE

VersSource: Space-Track

Epoch: Sep 14, 2026, 06:40 UTC

1 24705U 65109E   26257.27839949  .00001894  00000-0  97651-3 0  9995
2 24705  89.0792 189.2699 0076421 140.4747  11.5658 14.13242310513428

Volg TRANSIT 10 DEB in realtime met AllMySat

Download on the App Store